Year,Month,Day,Hour,Minute,Value (Times are PST for temperature in C)
2013,09,16,00,00,13.10
2013,09,16,00,09,13.10
2013,09,16,00,15,13.10
2013,09,16,00,16,13.10
2013,09,16,00,17,13.10
2013,09,16,00,18,13.10
2013,09,16,00,19,13.10
2013,09,16,00,28,13.10
2013,09,16,00,29,13.10
2013,09,16,00,32,13.20
2013,09,16,00,33,13.20
2013,09,16,00,34,13.20
2013,09,16,00,35,13.20
2013,09,16,00,36,13.20
2013,09,16,00,40,13.30
2013,09,16,00,41,13.30
2013,09,16,00,42,13.30
2013,09,16,00,43,13.30
2013,09,16,00,44,13.30
2013,09,16,00,47,13.30
2013,09,16,00,48,13.30
2013,09,16,00,49,13.30
2013,09,16,00,52,13.40
2013,09,16,00,53,13.40
2013,09,16,00,56,13.40
2013,09,16,00,57,13.40
2013,09,16,01,00,13.40
2013,09,16,01,01,13.40
2013,09,16,01,02,13.30
2013,09,16,01,05,13.30
2013,09,16,01,06,13.30
2013,09,16,01,09,13.30
2013,09,16,01,10,13.30
2013,09,16,01,14,13.30
2013,09,16,01,18,13.30
2013,09,16,01,19,13.30
2013,09,16,01,24,13.40
2013,09,16,01,27,13.40
2013,09,16,01,28,13.40
2013,09,16,01,29,13.40
2013,09,16,01,30,13.50
2013,09,16,01,31,13.50
2013,09,16,01,32,13.50
2013,09,16,01,45,13.60
2013,09,16,01,46,13.60
2013,09,16,01,47,13.60
2013,09,16,02,09,14.20
2013,09,16,02,13,14.30
2013,09,16,02,14,14.40
2013,09,16,02,16,14.50
2013,09,16,02,17,14.50
2013,09,16,02,18,14.60
2013,09,16,02,20,14.60
2013,09,16,02,22,14.60
2013,09,16,02,25,14.60
2013,09,16,02,26,14.60
2013,09,16,02,28,14.60
2013,09,16,02,30,14.60
2013,09,16,02,31,14.60
2013,09,16,02,35,14.60
2013,09,16,02,37,14.60
2013,09,16,02,40,14.70
2013,09,16,02,41,14.70
2013,09,16,02,45,14.70
2013,09,16,02,47,14.80
2013,09,16,02,50,14.90
2013,09,16,02,51,14.90
2013,09,16,02,57,15.00
2013,09,16,02,58,15.00
2013,09,16,02,59,15.00
2013,09,16,03,00,15.00
2013,09,16,03,01,15.00
2013,09,16,03,03,15.00
2013,09,16,03,05,15.00
2013,09,16,03,08,15.10
2013,09,16,03,13,15.10
2013,09,16,03,17,15.10
2013,09,16,03,21,15.10
2013,09,16,03,22,15.10
2013,09,16,03,25,15.20
2013,09,16,03,27,15.20
2013,09,16,03,28,15.20
2013,09,16,03,35,15.40
2013,09,16,03,36,15.40
2013,09,16,03,40,15.50
2013,09,16,03,43,15.60
2013,09,16,03,44,15.60
2013,09,16,03,47,15.60
2013,09,16,03,48,15.70
2013,09,16,03,49,15.70
2013,09,16,03,50,15.70
2013,09,16,03,51,15.70
2013,09,16,03,59,15.90
2013,09,16,04,00,15.90
2013,09,16,04,01,15.90
2013,09,16,04,02,15.90
2013,09,16,04,04,15.90
2013,09,16,04,05,15.90
2013,09,16,04,10,16.00
2013,09,16,04,11,16.00
2013,09,16,04,17,16.10
2013,09,16,04,18,16.10
2013,09,16,04,19,16.10
2013,09,16,04,20,16.10
2013,09,16,04,29,16.20
2013,09,16,04,30,16.20
2013,09,16,04,31,16.30
2013,09,16,04,32,16.30
2013,09,16,04,33,16.30
2013,09,16,04,42,16.30
2013,09,16,04,43,16.30
2013,09,16,04,44,16.30
2013,09,16,04,45,16.30
2013,09,16,04,46,16.30
2013,09,16,05,00,16.30
2013,09,16,05,24,16.20
2013,09,16,05,25,16.20
2013,09,16,05,26,16.20
2013,09,16,05,27,16.20
2013,09,16,05,28,16.20
2013,09,16,05,29,16.20
2013,09,16,05,30,16.20
2013,09,16,05,31,16.20
2013,09,16,05,32,16.20
2013,09,16,05,33,16.20
2013,09,16,05,34,16.20
2013,09,16,05,35,16.20
2013,09,16,05,36,16.20
2013,09,16,05,37,16.20
2013,09,16,05,38,16.20
2013,09,16,05,39,16.20
2013,09,16,05,40,16.20
2013,09,16,05,43,16.10
2013,09,16,05,44,16.10
2013,09,16,05,49,16.10
2013,09,16,06,12,15.90
2013,09,16,06,13,15.90
2013,09,16,06,14,15.90
2013,09,16,06,15,15.80
2013,09,16,06,16,15.80
2013,09,16,07,12,12.90
2013,09,16,07,13,12.90
2013,09,16,07,14,12.90
2013,09,16,07,15,12.90
2013,09,16,07,16,12.90
2013,09,16,07,27,12.90
2013,09,16,07,28,13.00
2013,09,16,07,29,13.00
2013,09,16,07,30,13.00
2013,09,16,07,38,13.20
2013,09,16,07,39,13.20
2013,09,16,07,41,13.20
2013,09,16,07,43,13.20
2013,09,16,07,49,13.30
2013,09,16,07,50,13.30
2013,09,16,07,52,13.30
2013,09,16,07,56,13.40
2013,09,16,07,58,13.40
2013,09,16,08,04,13.60
2013,09,16,08,06,13.70
2013,09,16,08,07,13.70
2013,09,16,08,09,13.70
2013,09,16,08,12,13.80
2013,09,16,08,14,13.80
2013,09,16,08,16,13.80
2013,09,16,08,17,13.80
2013,09,16,08,21,13.90
2013,09,16,08,27,14.00
2013,09,16,08,28,14.00
2013,09,16,08,30,14.10
2013,09,16,08,31,14.00
2013,09,16,08,32,14.00
2013,09,16,08,33,14.00
2013,09,16,08,38,14.00
2013,09,16,08,39,13.90
2013,09,16,08,40,13.90
2013,09,16,08,43,13.90
2013,09,16,08,52,13.90
2013,09,16,08,57,14.00
2013,09,16,08,58,14.10
2013,09,16,08,59,14.10
2013,09,16,09,00,14.10
2013,09,16,09,01,14.10
2013,09,16,09,02,14.10
2013,09,16,09,06,14.10
2013,09,16,09,11,14.30
2013,09,16,09,12,14.30
2013,09,16,09,13,14.30
2013,09,16,09,14,14.40
2013,09,16,09,15,14.40
2013,09,16,09,16,14.40
2013,09,16,09,17,14.40
2013,09,16,09,18,14.40
2013,09,16,09,19,14.40
2013,09,16,09,20,14.40
2013,09,16,09,21,14.40
2013,09,16,09,22,14.40
2013,09,16,09,23,14.40
2013,09,16,09,24,14.40
2013,09,16,09,29,14.10
2013,09,16,09,30,14.10
2013,09,16,09,31,14.00
2013,09,16,09,32,14.00
2013,09,16,09,35,14.00
2013,09,16,09,38,14.10
2013,09,16,09,40,14.20
2013,09,16,09,41,14.20
2013,09,16,09,42,14.20
2013,09,16,09,43,14.20
2013,09,16,09,44,14.20
2013,09,16,09,49,14.20
2013,09,16,09,50,14.20
2013,09,16,09,51,14.20
2013,09,16,09,52,14.20
2013,09,16,09,56,14.10
2013,09,16,09,57,14.10
2013,09,16,09,58,14.10
2013,09,16,09,59,14.10
2013,09,16,10,06,14.30
2013,09,16,10,07,14.30
2013,09,16,10,10,14.40
2013,09,16,10,11,14.40
2013,09,16,10,12,14.40
2013,09,16,10,13,14.40
2013,09,16,10,20,14.30
2013,09,16,10,21,14.30
2013,09,16,10,22,14.30
2013,09,16,10,24,14.30
2013,09,16,10,25,14.30
2013,09,16,10,26,14.30
2013,09,16,10,27,14.30
2013,09,16,10,31,14.40
2013,09,16,10,32,14.40
2013,09,16,10,35,14.50
2013,09,16,10,37,14.50
2013,09,16,10,38,14.50
2013,09,16,10,39,14.40
2013,09,16,10,40,14.40
2013,09,16,10,41,14.40
2013,09,16,10,45,14.40
2013,09,16,10,46,14.40
2013,09,16,10,52,14.40
2013,09,16,10,53,14.40
2013,09,16,10,54,14.50
2013,09,16,11,01,14.60
2013,09,16,11,02,14.60
2013,09,16,11,11,14.80
2013,09,16,12,03,14.40
2013,09,16,12,04,14.40
2013,09,16,12,05,14.50
2013,09,16,12,07,14.70
2013,09,16,12,08,14.80
2013,09,16,12,09,15.00
2013,09,16,12,11,15.00
2013,09,16,12,13,15.00
2013,09,16,12,14,15.00
2013,09,16,12,17,15.20
2013,09,16,12,19,15.50
2013,09,16,12,22,15.80
2013,09,16,12,25,16.00
2013,09,16,12,26,16.10
2013,09,16,12,29,16.30
2013,09,16,12,35,16.70
2013,09,16,12,36,16.70
2013,09,16,12,37,16.70
2013,09,16,12,38,16.80
2013,09,16,12,39,16.90
2013,09,16,12,40,16.90
2013,09,16,12,41,17.00
2013,09,16,12,42,17.10
2013,09,16,12,43,17.20
2013,09,16,12,44,17.20
2013,09,16,12,45,17.20
2013,09,16,12,53,18.00
2013,09,16,12,54,18.10
2013,09,16,12,55,18.10
2013,09,16,12,56,18.20
2013,09,16,12,57,18.30
2013,09,16,12,58,18.30
2013,09,16,12,59,18.40
2013,09,16,13,00,18.50
2013,09,16,13,01,18.50
2013,09,16,13,11,18.70
2013,09,16,13,12,18.70
2013,09,16,13,13,18.80
2013,09,16,13,14,18.80
2013,09,16,13,15,18.70
2013,09,16,13,16,18.70
2013,09,16,13,26,18.60
2013,09,16,13,27,18.60
2013,09,16,13,28,18.60
2013,09,16,13,29,18.60
2013,09,16,13,30,18.60
2013,09,16,13,39,18.50
2013,09,16,13,40,18.60
2013,09,16,13,41,18.60
2013,09,16,13,42,18.60
2013,09,16,13,43,18.70
2013,09,16,13,44,18.70
2013,09,16,13,45,18.70
2013,09,16,13,46,18.70
2013,09,16,13,49,18.70
2013,09,16,13,58,18.90
2013,09,16,13,59,18.90
2013,09,16,14,00,19.00
2013,09,16,14,01,19.00
2013,09,16,14,02,19.10
2013,09,16,14,04,19.20
2013,09,16,14,05,19.30
2013,09,16,14,06,19.40
2013,09,16,14,07,19.50
2013,09,16,14,08,19.60
2013,09,16,14,09,19.60
2013,09,16,14,10,19.60
2013,09,16,14,11,19.60
2013,09,16,14,12,19.60
2013,09,16,14,13,19.60
2013,09,16,14,14,19.60
2013,09,16,14,15,19.60
2013,09,16,14,16,19.50
2013,09,16,14,17,19.50
2013,09,16,14,18,19.50
2013,09,16,14,19,19.50
2013,09,16,14,20,19.40
2013,09,16,14,30,19.40
2013,09,16,14,31,19.40
2013,09,16,14,43,19.40
2013,09,16,14,55,19.60
2013,09,16,14,56,19.60
2013,09,16,14,57,19.60
2013,09,16,14,58,19.60
2013,09,16,14,59,19.60
2013,09,16,15,00,19.60
2013,09,16,15,01,19.60
2013,09,16,15,02,19.60
2013,09,16,15,13,19.50
2013,09,16,15,14,19.50
2013,09,16,15,15,19.50
2013,09,16,15,16,19.60
2013,09,16,15,17,19.60
2013,09,16,15,18,19.70
2013,09,16,15,19,19.70
2013,09,16,15,20,19.70
2013,09,16,15,21,19.80
2013,09,16,15,32,20.10
2013,09,16,15,33,20.20
2013,09,16,15,34,20.20
2013,09,16,15,35,20.30
2013,09,16,15,36,20.30
2013,09,16,15,37,20.20
2013,09,16,15,38,20.20
2013,09,16,15,39,20.20
2013,09,16,15,40,20.20
2013,09,16,15,41,20.20
2013,09,16,17,03,17.50
2013,09,16,17,04,17.50
2013,09,16,17,05,17.50
2013,09,16,17,06,17.50
2013,09,16,17,07,17.50
2013,09,16,17,08,17.60
2013,09,16,17,09,17.60
2013,09,16,17,10,17.60
2013,09,16,17,11,17.60
2013,09,16,17,12,17.60
2013,09,16,17,13,17.50
2013,09,16,17,14,17.50
2013,09,16,17,15,17.50
2013,09,16,17,16,17.50
2013,09,16,17,17,17.50
2013,09,16,17,18,17.50
2013,09,16,17,19,17.50
2013,09,16,18,28,16.70
2013,09,16,18,29,16.70
2013,09,16,18,30,16.70
2013,09,16,18,31,16.70
2013,09,16,18,32,16.70
2013,09,16,18,33,16.70
2013,09,16,18,34,16.70
2013,09,16,18,35,16.70
2013,09,16,18,36,16.70
2013,09,16,18,37,16.70
2013,09,16,18,38,16.70
2013,09,16,18,39,16.70
2013,09,16,18,40,16.70
2013,09,16,18,41,16.70
2013,09,16,18,42,16.70
2013,09,16,18,43,16.70
2013,09,16,18,44,16.70
2013,09,16,18,45,16.70
2013,09,16,18,46,16.70
2013,09,16,18,47,16.70
2013,09,16,18,48,16.70
2013,09,16,18,49,16.70
2013,09,16,18,50,16.60
2013,09,16,18,51,16.60
2013,09,16,18,52,16.60
2013,09,16,18,53,16.60
2013,09,16,18,54,16.60
2013,09,16,18,55,16.60
2013,09,16,18,56,16.60
2013,09,16,18,57,16.60
2013,09,16,18,58,16.60
2013,09,16,18,59,16.50
2013,09,16,19,00,16.50
2013,09,16,19,01,16.50
2013,09,16,19,02,16.40
2013,09,16,19,03,16.40
2013,09,16,19,04,16.40
2013,09,16,19,05,16.30
2013,09,16,19,06,16.30
2013,09,16,19,07,16.30
2013,09,16,19,08,16.20
2013,09,16,19,09,16.20
2013,09,16,19,10,16.10
2013,09,16,19,11,16.10
2013,09,16,19,12,16.10
2013,09,16,19,13,16.10
2013,09,16,19,14,16.10
2013,09,16,19,15,16.00
2013,09,16,19,16,16.00
2013,09,16,19,17,16.00
2013,09,16,19,18,15.90
2013,09,16,19,19,15.90
2013,09,16,19,20,15.90
2013,09,16,19,21,15.90
2013,09,16,19,22,15.90
2013,09,16,19,23,15.80
2013,09,16,19,24,15.80
2013,09,16,19,25,15.80
2013,09,16,19,26,15.80
2013,09,16,22,14,15.00
2013,09,16,22,15,15.00
2013,09,16,22,16,15.00
2013,09,16,22,17,15.00
2013,09,16,22,18,15.00
2013,09,16,22,19,15.00
2013,09,16,22,20,15.00
2013,09,16,22,21,15.00
2013,09,16,22,22,15.00
2013,09,16,22,23,15.00
2013,09,16,22,26,15.00
2013,09,16,22,28,15.00
2013,09,16,22,29,15.00
2013,09,16,22,30,15.00
2013,09,16,22,32,15.00
2013,09,16,22,33,15.00
2013,09,16,22,34,15.00
2013,09,16,22,35,15.00
2013,09,16,22,36,15.00
2013,09,16,22,37,14.90
2013,09,16,22,38,14.90
2013,09,16,22,39,14.90
2013,09,16,22,40,14.90
2013,09,16,22,41,14.90
2013,09,16,22,51,14.80
2013,09,16,22,52,14.80
2013,09,16,22,53,14.80
2013,09,16,22,54,14.70
2013,09,16,22,55,14.70
2013,09,16,22,56,14.70
2013,09,16,22,57,14.70
2013,09,16,22,58,14.70
2013,09,16,22,59,14.70
2013,09,16,23,00,14.70
2013,09,16,23,01,14.70
2013,09,16,23,02,14.70
2013,09,16,23,04,14.70
2013,09,16,23,05,14.60
2013,09,16,23,06,14.60
2013,09,16,23,07,14.60
2013,09,16,23,08,14.60
2013,09,16,23,15,14.60
2013,09,16,23,16,14.60
2013,09,16,23,19,14.60
2013,09,16,23,20,14.50
